NOAA 16 DEB, 41086

Orbit data source: Space-Track

NOAA 16 DEB, 41086 is space debris in SSO originally from a launch on Thu, 21 Sep 2000 UTC launched from the Air Force Western Test Range (AFWTR). Debris objects in space refer to the collection of defunct objects orbiting the Earth. Examples of debris include non-operational satellites, rocket bodies, and fragments generated from explosions, collisions, or faulty payload assembly.

Loading next visibility...
NOAA 16 DEB details
Identifier
41086, 2000-055AV
Orbit
SSO
Last TLE update4 days ago
Origin
Flag of USNOAA (US)
ManufacturerUnknown
MissionSpacecraft
Bus & MotorUnknown
MassUnknown
Launch date (UTC)
2000-09-21 (24 years ago)
Launch vehicleUnknown
Launch site
Air Force Western Test Range (AFWTR)
Object type
Payload
Rocket body
Debris
Shape & HBRUnknown
Radar Cross SectionSmall (<0.1 m²)

Expand to show TLE details & history

TLE from 4 days ago
0 NOAA 16 DEB
1 41086U 00055AV  24357.81306532  .00022085  00000-0  57215-2 0  9997
2 41086  98.8006 128.4364 0037491 192.4190 167.6082 14.49374709472720
Epoch: 2024-12-22T19:30Z
Definitive object data (Epoch: 2024-12-22T19:30:48.843Z)
Latitude-0.00004°
Longitude103.8884°
Altitude756.673 km
Speed7.462 km/s
True Right ascension08h 33m 44s
True Declination0° 00' 00"
Sunlit
Object was in full shadow at TLE epoch
Visualization TLE readout
Latitude49.15339°
Longitude-62.01021°
Altitude718.166 km
Speed7.51 km/s
Apparent Right ascension22h 24m 51s
Apparent Declination7° 48' 31"
Sunlit
Object is in daylight
Visualization observer readout
Local Sidereal Time11:16:43
Azimuth17.077° NNE
Elevation-40.792°
Doppler factor1
Orbital elements
Apogee altitude751.445 km
Perigee altitude698.186 km
Semi-major axis7,102.952 km
Eccentricity0.0037491
Inclination98.8006°
RAAN128.4364°
Arg. of periapsis192.419°
True anomaly167.69997°
Mean anomaly167.6082°
Eccentric anomaly167.65413°
Mean motion3.62564 °/min
BSTAR0.0057215
Orbital period99.29 mins
Loading maneuver chart data...
Loading historical data...
Loading historical data...
Loading historical data...
Loading historical data...
Loading historical data...
Loading historical data...
Loading historical data...

NOAA 16 DEB Visibility forecast

Observer location: undefined°, undefined

Span
Click to sort rows by Start time (UTC) header in descending order
Start Az.
Max El. time (UTC)
Max El. Az.
Max El.
End time (UTC)
End Az.
8 mins2024-12-26 21:50:18.226Z15.49° NNE2024-12-26 21:54:18.226Z103.191° ESE44.845°2024-12-26 21:58:18.226Z192.222° SSW
8 mins2024-12-27 08:59:18.226Z169.645° S2024-12-27 09:02:18.226Z199.815° SSW44.111°2024-12-27 09:07:18.226Z344.327° N
|